Spokane Felts, WA
on Sunday, January 27, 2013

Sunday
Previous Day Next Day
Daily Summary
 ActualAverageRecord
Temperature
Mean Temperature °F / °C 33°F / 1°C  
Max Temperature 33°F / 1°C 38°F / 3°C 46°F / 7°C (2003)
Min Temperature 29°F / -2°C 27°F / -3°C 8°F / -13°C (1997)
Degree Days
Heating Degree Days 34 32  
Month to date heating degree days 1017 915  
Since 1 July heating degree days 3185 3584  
Cooling Degree Days 0 0  
Month to date cooling degree days 0 0  
Year to date cooling degree days 0 0  
Moisture
Dew Point 26°F / -3°C   
Average Humidity 80    
Maximum Humidity 85    
Minimum Humidity 75    
Precipitation
Precipitation T in / T cm 0.06 in / 1.52 cm 0.55 in / 1.40 cm (2008)
Month to date precipitation 1.45 1.74  
Year to date precipitation 1.45 1.74  
Wind
Wind Speed 5 mph / 7 km/h   
Max Wind Speed 12 mph / 19 km/h   
Max Gust Speed 13 mph / 21 km/h   
Visibility 8 miles / 12 kilometers   
Events Snow   

Key: T is trace of precipitation, MM is missing value
Source: NWS Daily Summary
Time(PST)TemperatureDew PointHumidity Pressure Visibility Wind DirectionWind SpeedGust SpeedPrecipitationEvents Conditions
12:22 AM 32.0°F / 0.0°C 26.6°F / -3.0°C 80% 29.94 in / 1013.8 hPa 10.0 miles / 16.1 kilometers SSW 8.1 mph / 13.0 km/h - N/A   Overcast
12:53 AM 32.0°F / 0.0°C 26.6°F / -3.0°C 80% 29.94 in / 1013.8 hPa 10.0 miles / 16.1 kilometers SW 3.5 mph / 5.6 km/h - N/A   Overcast
1:53 AM 32.0°F / 0.0°C 27.0°F / -2.8°C 82% 29.98 in / 1015.1 hPa 10.0 miles / 16.1 kilometers SSW 8.1 mph / 13.0 km/h - N/A   Overcast
2:23 AM 32.0°F / 0.0°C 26.6°F / -3.0°C 80% 29.94 in / 1013.8 hPa 3.0 miles / 4.8 kilometers WSW 5.8 mph / 9.3 km/h - 0.00 in / 0.0 cm Snow Light Snow
2:30 AM 32.0°F / 0.0°C 28.4°F / -2.0°C 87% 29.94 in / 1013.8 hPa 2.5 miles / 4.0 kilometers WSW 4.6 mph / 7.4 km/h - 0.00 in / 0.0 cm Snow Light Snow
2:40 AM 32.0°F / 0.0°C 28.4°F / -2.0°C 87% 29.94 in / 1013.8 hPa 4.0 miles / 6.4 kilometers West 3.5 mph / 5.6 km/h - 0.00 in / 0.0 cm Snow Light Snow
2:53 AM 32.0°F / 0.0°C 28.0°F / -2.2°C 85% 29.99 in / 1015.3 hPa 3.0 miles / 4.8 kilometers West 3.5 mph / 5.6 km/h - 0.00 in / 0.0 cm Snow Light Snow
3:53 AM 30.9°F / -0.6°C 26.1°F / -3.3°C 82% 29.99 in / 1015.4 hPa 10.0 miles / 16.1 kilometers SSW 9.2 mph / 14.8 km/h - 0.00 in / 0.0 cm   Overcast
4:20 AM 30.2°F / -1.0°C 24.8°F / -4.0°C 80% 29.94 in / 1013.8 hPa 10.0 miles / 16.1 kilometers SW 6.9 mph / 11.1 km/h - N/A   Overcast
4:53 AM 30.0°F / -1.1°C 25.0°F / -3.9°C 82% 29.99 in / 1015.6 hPa 6.0 miles / 9.7 kilometers SW 6.9 mph / 11.1 km/h - N/A   Haze
5:00 AM 30.2°F / -1.0°C 24.8°F / -4.0°C 80% 29.95 in / 1014.1 hPa 7.0 miles / 11.3 kilometers SW 9.2 mph / 14.8 km/h - N/A   Overcast
5:15 AM 30.2°F / -1.0°C 24.8°F / -4.0°C 80% 29.95 in / 1014.1 hPa 8.0 miles / 12.9 kilometers WSW 8.1 mph / 13.0 km/h - N/A   Overcast
5:53 AM 30.0°F / -1.1°C 24.1°F / -4.4°C 79% 30.00 in / 1015.9 hPa 6.0 miles / 9.7 kilometers SW 9.2 mph / 14.8 km/h - 0.00 in / 0.0 cm Snow Light Snow
6:53 AM 30.0°F / -1.1°C 24.1°F / -4.4°C 79% 30.01 in / 1016.2 hPa 6.0 miles / 9.7 kilometers SSW 6.9 mph / 11.1 km/h - 0.00 in / 0.0 cm Snow Light Snow
7:53 AM 28.9°F / -1.7°C 24.1°F / -4.4°C 82% 30.02 in / 1016.4 hPa 6.0 miles / 9.7 kilometers Calm Calm - 0.00 in / 0.0 cm Snow Light Snow
8:32 AM 30.2°F / -1.0°C 24.8°F / -4.0°C 80% 29.98 in / 1015.1 hPa 10.0 miles / 16.1 kilometers West 5.8 mph / 9.3 km/h - 0.00 in / 0.0 cm   Overcast
8:53 AM 28.9°F / -1.7°C 25.0°F / -3.9°C 85% 30.03 in / 1016.9 hPa 9.0 miles / 14.5 kilometers WSW 4.6 mph / 7.4 km/h - 0.00 in / 0.0 cm   Overcast
9:53 AM 30.0°F / -1.1°C 25.0°F / -3.9°C 82% 30.04 in / 1017.2 hPa 10.0 miles / 16.1 kilometers WNW 4.6 mph / 7.4 km/h - N/A   Overcast
10:00 AM 30.2°F / -1.0°C 24.8°F / -4.0°C 80% 29.99 in / 1015.5 hPa 10.0 miles / 16.1 kilometers WNW 3.5 mph / 5.6 km/h - N/A   Overcast
10:53 AM 30.9°F / -0.6°C 25.0°F / -3.9°C 79% 30.04 in / 1017.1 hPa 10.0 miles / 16.1 kilometers WSW 4.6 mph / 7.4 km/h - N/A   Overcast
11:53 AM 32.0°F / 0.0°C 26.1°F / -3.3°C 79% 30.02 in / 1016.4 hPa 10.0 miles / 16.1 kilometers WSW 4.6 mph / 7.4 km/h - N/A   Overcast
12:53 PM 33.1°F / 0.6°C 26.1°F / -3.3°C 75% 30.01 in / 1016.0 hPa 10.0 miles / 16.1 kilometers Variable 3.5 mph / 5.6 km/h - N/A   Overcast
1:53 PM 33.1°F / 0.6°C 27.0°F / -2.8°C 78% 29.99 in / 1015.6 hPa 10.0 miles / 16.1 kilometers SSW 6.9 mph / 11.1 km/h - N/A   Overcast
2:53 PM 33.1°F / 0.6°C 26.1°F / -3.3°C 75% 29.99 in / 1015.5 hPa 10.0 miles / 16.1 kilometers WSW 4.6 mph / 7.4 km/h - 0.00 in / 0.0 cm   Overcast
3:53 PM 32.0°F / 0.0°C 26.1°F / -3.3°C 79% 30.00 in / 1015.8 hPa 10.0 miles / 16.1 kilometers South 8.1 mph / 13.0 km/h - N/A   Overcast
4:53 PM 32.0°F / 0.0°C 26.1°F / -3.3°C 79% 30.01 in / 1016.1 hPa 10.0 miles / 16.1 kilometers South 8.1 mph / 13.0 km/h - N/A   Overcast
5:53 PM 30.9°F / -0.6°C 26.1°F / -3.3°C 82% 30.01 in / 1016.1 hPa 10.0 miles / 16.1 kilometers SW 3.5 mph / 5.6 km/h - N/A   Overcast
6:53 PM 32.0°F / 0.0°C 26.1°F / -3.3°C 79% 30.00 in / 1015.7 hPa 10.0 miles / 16.1 kilometers Calm Calm - N/A   Overcast
7:53 PM 32.0°F / 0.0°C 26.1°F / -3.3°C 79% 30.00 in / 1015.8 hPa 10.0 miles / 16.1 kilometers West 8.1 mph / 13.0 km/h - N/A   Overcast
8:53 PM 32.0°F / 0.0°C 26.1°F / -3.3°C 79% 29.99 in / 1015.6 hPa 10.0 miles / 16.1 kilometers WNW 3.5 mph / 5.6 km/h - N/A   Overcast
9:53 PM 33.1°F / 0.6°C 27.0°F / -2.8°C 78% 29.99 in / 1015.4 hPa 10.0 miles / 16.1 kilometers Calm Calm - N/A   Overcast
10:49 PM 33.8°F / 1.0°C 26.6°F / -3.0°C 75% 29.93 in / 1013.4 hPa 6.0 miles / 9.7 kilometers Calm Calm - 0.00 in / 0.0 cm Snow Light Snow
10:53 PM 32.0°F / 0.0°C 27.0°F / -2.8°C 82% 29.98 in / 1015.1 hPa 7.0 miles / 11.3 kilometers Calm Calm - 0.00 in / 0.0 cm   Overcast
11:23 PM 32.0°F / 0.0°C 28.4°F / -2.0°C 87% 29.93 in / 1013.4 hPa 2.0 miles / 3.2 kilometers Calm Calm - 0.00 in / 0.0 cm Snow Light Snow
11:31 PM 32.0°F / 0.0°C 28.4°F / -2.0°C 87% 29.93 in / 1013.4 hPa 1.8 miles / 2.8 kilometers Calm Calm - 0.00 in / 0.0 cm Snow Light Snow
11:39 PM 32.0°F / 0.0°C 28.4°F / -2.0°C 87% 29.93 in / 1013.4 hPa 1.8 miles / 2.8 kilometers Calm Calm - 0.00 in / 0.0 cm Snow Light Snow
11:48 PM 32.0°F / 0.0°C 28.4°F / -2.0°C 87% 29.92 in / 1013.1 hPa 2.0 miles / 3.2 kilometers Calm Calm - 0.00 in / 0.0 cm Snow Light Snow
11:53 PM 32.0°F / 0.0°C 28.9°F / -1.7°C 88% 29.97 in / 1014.9 hPa 2.0 miles / 3.2 kilometers Calm Calm - 0.00 in / 0.0 cm Snow Light Snow
Moon Phase
Jan. 27 Feb. 03 Feb. 10 Feb. 17 Feb. 25
Sunrise:07:21 AM (PST) Moon Rise:05:50 PM (PST)1/27
Sunset:04:43 PM (PST) Moon Set:07:10 AM (PST)1/27

Copyright © 2014 The Weather Underground, Inc.